| time (UTC) | temp F | wind direction | speed knots | gust knots | rain 1hr in | rain 24hr in | rain mn in | humidity % | barometer mb |
| 20260903050002 | 54 | 63 | 0.0 | 0.0 | 0.00 | 0.00 | 0.00 | 100 | 1023.1 |
| 20260903044502 | 53 | 63 | 0.0 | 1.7 | 0.00 | 0.00 | 0.00 | 100 | 1023.2 |
| 20260903043207 | 53 | 63 | 0.0 | 0.0 | 0.00 | 0.00 | 0.00 | 100 | 1023.2 |
| 20260903041606 | 53 | 63 | 0.0 | 0.0 | 0.00 | 0.00 | 0.00 | 100 | 1023.2 |
| 20260903034556 | 53 | 63 | 0.0 | 0.0 | 0.00 | 0.00 | 0.00 | 100 | 1023.2 |
| 20260903033055 | 52 | 63 | 0.0 | 0.0 | 0.00 | 0.00 | 0.00 | 100 | 1023.2 |
| 20260903031558 | 52 | 63 | 0.0 | 0.0 | 0.00 | 0.00 | 0.00 | 100 | 1023.1 |
| 20260903030053 | 52 | 63 | 0.0 | 0.0 | 0.00 | 0.00 | 0.00 | 100 | 1023.2 |
| 20260903024552 | 53 | 63 | 0.0 | 0.0 | 0.00 | 0.00 | 0.00 | 100 | 1023.2 |
| 20260903023051 | 53 | 63 | 0.0 | 0.0 | 0.00 | 0.00 | 0.00 | 100 | 1023.2 |
| 20260903021551 | 52 | 63 | 0.0 | 0.9 | 0.00 | 0.00 | 0.00 | 100 | 1023.4 |
| 20260903020051 | 51 | 63 | 0.0 | 1.7 | 0.00 | 0.00 | 0.00 | 100 | 1023.5 |
| 20260903014552 | 49 | 63 | 0.0 | 0.0 | 0.00 | 0.00 | 0.00 | 100 | 1023.4 |
| 20260903013103 | 49 | 63 | 0.0 | 0.0 | 0.00 | 0.00 | 0.00 | 100 | 1023.4 |
| 20260903011550 | 50 | 63 | 0.0 | 0.0 | 0.00 | 0.00 | 0.00 | 100 | 1023.1 |
| 20260903010051 | 50 | 63 | 0.0 | 0.0 | 0.00 | 0.00 | 0.00 | 100 | 1023.1 |
| 20260903003049 | 52 | 63 | 0.0 | 0.0 | 0.00 | 0.00 | 0.00 | 100 | 1023.3 |
| 20260903001547 | 53 | 63 | 0.0 | 0.0 | 0.00 | 0.00 | 0.00 | 100 | 1023.4 |
| 20260903000048 | 53 | 63 | 0.0 | 1.7 | 0.00 | 0.00 | 0.00 | 100 | 1023.1 |
| 20260902234605 | 55 | 63 | 0.0 | 0.9 | 0.00 | 0.00 | 0.00 | 100 | 1023.2 |
| 20260902233047 | 56 | 63 | 0.0 | 0.9 | 0.00 | 0.00 | 0.00 | 100 | 1023.3 |
| 20260902231545 | 57 | 63 | 0.0 | 1.7 | 0.00 | 0.00 | 0.00 | 100 | 1023.4 |
| 20260902230045 | 59 | 63 | 0.0 | 0.9 | 0.00 | 0.00 | 0.00 | 100 | 1023.2 |
| 20260902224605 | 60 | 63 | 0.0 | 0.9 | 0.00 | 0.00 | 0.00 | 100 | 1023.4 |
| 20260902223044 | 62 | 63 | 0.0 | 1.7 | 0.00 | 0.00 | 0.00 | 100 | 1023.3 |
| 20260902221544 | 63 | 63 | 0.0 | 1.7 | 0.00 | 0.00 | 0.00 | 100 | 1023.5 |
| 20260902220049 | 64 | 63 | 0.9 | 4.3 | 0.00 | 0.00 | 0.00 | 100 | 1023.4 |
| 20260902214542 | 64 | 66 | 0.0 | 4.3 | 0.00 | 0.00 | 0.00 | 100 | 1023.6 |
| 20260902213043 | 65 | 38 | 0.0 | 2.6 | 0.00 | 0.00 | 0.00 | 100 | 1023.7 |
| 20260902211541 | 66 | 15 | 0.0 | 2.6 | 0.00 | 0.00 | 0.00 | 100 | 1023.8 |
| 20260902210041 | 66 | 60 | 1.7 | 7.0 | 0.00 | 0.00 | 0.00 | 100 | 1023.8 |
| 20260902204541 | 67 | 73 | 0.9 | 7.0 | 0.00 | 0.00 | 0.00 | 100 | 1024.0 |
| 20260902203036 | 66 | 5 | 1.7 | 7.0 | 0.00 | 0.00 | 0.00 | 100 | 1023.4 |
| 20260902201532 | 67 | 342 | 2.6 | 7.8 | 0.00 | 0.00 | 0.00 | 100 | 1023.7 |
| 20260902200048 | 67 | 71 | 3.5 | 7.8 | 0.00 | 0.00 | 0.00 | 100 | 1023.8 |
| 20260902194528 | 67 | 81 | 0.9 | 7.0 | 0.00 | 0.00 | 0.00 | 100 | 1023.9 |
| 20260902193026 | 67 | 83 | 2.6 | 7.8 | 0.00 | 0.00 | 0.00 | 100 | 1023.8 |
| 20260902191530 | 67 | 90 | 1.7 | 7.8 | 0.00 | 0.00 | 0.00 | 100 | 1023.8 |
| 20260902190124 | 67 | 76 | 3.5 | 8.7 | 0.00 | 0.00 | 0.00 | 100 | 1023.7 |
| 20260902184523 | 67 | 74 | 4.3 | 7.8 | 0.00 | 0.00 | 0.00 | 100 | 1023.8 |
| 20260902183022 | 67 | 92 | 4.3 | 8.7 | 0.00 | 0.00 | 0.00 | 100 | 1023.7 |
| 20260902181522 | 67 | 56 | 1.7 | 7.8 | 0.00 | 0.00 | 0.00 | 100 | 1023.8 |
| 20260902180020 | 67 | 86 | 4.3 | 8.7 | 0.00 | 0.00 | 0.00 | 100 | 1023.9 |
| 20260902174518 | 68 | 75 | 3.5 | 9.6 | 0.00 | 0.00 | 0.00 | 100 | 1023.8 |
| 20260902173117 | 67 | 74 | 4.3 | 8.7 | 0.00 | 0.00 | 0.00 | 100 | 1023.9 |
| 20260902171517 | 67 | 78 | 2.6 | 8.7 | 0.00 | 0.00 | 0.00 | 100 | 1023.7 |
| 20260902170015 | 67 | 44 | 4.3 | 9.6 | 0.00 | 0.00 | 0.00 | 100 | 1023.7 |
| 20260902164516 | 67 | 74 | 2.6 | 10.4 | 0.00 | 0.00 | 0.00 | 100 | 1023.8 |
| 20260902163013 | 67 | 95 | 2.6 | 8.7 | 0.00 | 0.00 | 0.00 | 100 | 1023.8 |
| 20260902161513 | 67 | 87 | 2.6 | 8.7 | 0.00 | 0.00 | 0.00 | 100 | 1023.9 |
| 20260902160014 | 67 | 56 | 1.7 | 9.6 | 0.00 | 0.00 | 0.00 | 100 | 1024.0 |
| 20260902154508 | 66 | 86 | 4.3 | 9.6 | 0.00 | 0.00 | 0.00 | 100 | 1024.2 |
| 20260902153007 | 67 | 82 | 2.6 | 9.6 | 0.00 | 0.00 | 0.00 | 100 | 1024.2 |
| 20260902151505 | 68 | 98 | 0.9 | 7.8 | 0.00 | 0.00 | 0.00 | 100 | 1024.1 |
| 20260902150001 | 67 | 101 | 4.3 | 9.6 | 0.00 | 0.00 | 0.00 | 100 | 1024.4 |
| 20260902144558 | 66 | 64 | 3.5 | 9.6 | 0.00 | 0.00 | 0.00 | 100 | 1024.3 |
| 20260902143054 | 66 | 88 | 4.3 | 8.7 | 0.00 | 0.00 | 0.00 | 100 | 1024.2 |
| 20260902141551 | 66 | 53 | 5.2 | 8.7 | 0.00 | 0.00 | 0.00 | 100 | 1024.2 |
| 20260902140049 | 66 | 355 | 1.7 | 8.7 | 0.00 | 0.00 | 0.00 | 100 | 1024.3 |
| 20260902134541 | 65 | 84 | 4.3 | 8.7 | 0.00 | 0.00 | 0.00 | 100 | 1024.2 |
| 20260902133041 | 65 | 66 | 5.2 | 8.7 | 0.00 | 0.00 | 0.00 | 100 | 1024.3 |
| 20260902131535 | 63 | 84 | 2.6 | 7.8 | 0.00 | 0.00 | 0.00 | 100 | 1023.9 |
| 20260902130029 | 61 | 86 | 4.3 | 8.7 | 0.00 | 0.00 | 0.00 | 100 | 1024.1 |
| 20260902124522 | 59 | 137 | 1.7 | 3.5 | 0.00 | 0.00 | 0.00 | 100 | 1024.1 |
| 20260902123021 | 58 | 172 | 0.0 | 0.0 | 0.00 | 0.00 | 0.00 | 100 | 1024.1 |
| 20260902121521 | 57 | 172 | 0.0 | 0.9 | 0.00 | 0.00 | 0.00 | 100 | 1024.2 |
| 20260902120022 | 57 | 172 | 0.0 | 0.9 | 0.00 | 0.00 | 0.00 | 100 | 1024.3 |
| 20260902114525 | 56 | 172 | 0.0 | 0.9 | 0.00 | 0.00 | 0.00 | 100 | 1024.2 |
| 20260902113018 | 53 | 172 | 0.0 | 0.9 | 0.00 | 0.00 | 0.00 | 100 | 1024.1 |
| 20260902111516 | 52 | 172 | 0.0 | 0.9 | 0.00 | 0.00 | 0.00 | 100 | 1024.0 |
| 20260902110017 | 51 | 171 | 0.0 | 0.9 | 0.00 | 0.00 | 0.00 | 100 | 1024.0 |
| 20260902104519 | 50 | 171 | 0.0 | 0.9 | 0.00 | 0.00 | 0.00 | 100 | 1023.8 |
| 20260902103013 | 50 | 171 | 0.0 | 0.0 | 0.00 | 0.00 | 0.00 | 100 | 1023.7 |
| 20260902101512 | 50 | 172 | 0.0 | 0.9 | 0.00 | 0.00 | 0.00 | 100 | 1023.7 |
| 20260902100010 | 49 | 171 | 0.0 | 0.0 | 0.00 | 0.00 | 0.00 | 100 | 1023.4 |
| 20260902094517 | 49 | 172 | 0.0 | 0.9 | 0.00 | 0.00 | 0.00 | 100 | 1023.2 |
| 20260902093004 | 50 | 172 | 0.0 | 0.0 | 0.00 | 0.00 | 0.00 | 100 | 1023.2 |
| 20260902091502 | 51 | 172 | 0.0 | 0.0 | 0.00 | 0.00 | 0.00 | 100 | 1022.8 |
| 20260902090115 | 51 | 171 | 0.0 | 0.0 | 0.00 | 0.00 | 0.00 | 100 | 1022.9 |
| 20260902084559 | 52 | 172 | 0.0 | 0.0 | 0.00 | 0.00 | 0.00 | 100 | 1022.8 |
| 20260902083053 | 53 | 172 | 0.0 | 0.0 | 0.00 | 0.00 | 0.00 | 100 | 1022.7 |
| 20260902081551 | 54 | 171 | 0.0 | 0.0 | 0.00 | 0.00 | 0.00 | 100 | 1022.4 |
| 20260902080054 | 54 | 172 | 0.0 | 0.0 | 0.00 | 0.00 | 0.00 | 100 | 1022.2 |
| 20260902074545 | 54 | 171 | 0.0 | 0.9 | 0.00 | 0.00 | 0.00 | 100 | 1022.0 |
| 20260902073042 | 54 | 172 | 0.0 | 0.9 | 0.00 | 0.00 | 0.00 | 100 | 1021.9 |
| 20260902071540 | 55 | 171 | 0.0 | 2.6 | 0.00 | 0.00 | 0.00 | 100 | 1022.0 |
| 20260902070036 | 56 | 171 | 0.0 | 1.7 | 0.00 | 0.00 | 0.00 | 100 | 1021.7 |
| 20260902064534 | 57 | 171 | 0.0 | 0.9 | 0.00 | 0.00 | 0.00 | 100 | 1021.7 |
| 20260902063031 | 58 | 171 | 0.0 | 1.7 | 0.00 | 0.00 | 0.00 | 100 | 1021.7 |
| 20260902061531 | 58 | 171 | 0.9 | 2.6 | 0.00 | 0.00 | 0.00 | 100 | 1021.6 |
| 20260902060033 | 59 | 171 | 0.9 | 2.6 | 0.00 | 0.00 | 0.00 | 100 | 1021.7 |
| 20260902054524 | 59 | 170 | 0.0 | 2.6 | 0.00 | 0.00 | 0.00 | 100 | 1021.6 |
| 20260902053033 | 60 | 170 | 0.0 | 3.5 | 0.00 | 0.00 | 0.00 | 100 | 1021.6 |
| 20260902051521 | 61 | 168 | 1.7 | 6.1 | 0.00 | 0.00 | 0.00 | 100 | 1021.6 |